Retour au catalogue

STARLINK-36188

ActifCommunicationsVLEO
NORAD 67122·PAYLOAD·🇺🇸 United States

Lancé Dec 15, 2025 depuis Cape Canaveral Space Force Station

Loading…

Prochains Passages (prochaines 24 heures)

TLE

FraisSource: CelesTrak SupGP

Époque: Sep 14, 2026, 22:27 UTC

1 67122C 25299W   26257.93590278 -.00058852  00000+0 -21312-2 0  2577
2 67122  43.0021 180.4596 0001375 263.8325 193.4701 15.27614010    11

Suivez STARLINK-36188 en temps réel avec AllMySat

Download on the App Store